Current weather by "City, St" or "zip code"  
 
Advertise Here

Current Conditions: Memphis International Airport, TN

Mostly Cloudy


77.0 F

Last Updated on Sep 16 2021, 9:54 pm CDT
Humidity: 77%
Wind Speed: E 8.1 mph
Barometer 29.99 in
Dewpoint: 69.1 F
Visibility: 10.00 mi
Precip: --
Heat Index: NA
Wind Chill: NA
Current conditions at:

Memphis International Airport, TN (KMEM)

Lat: 35.05644 Lon: 89.98634

Local Radar Image active severe weather and emergency alerts image image weather storm and storm spotter reports image weather observation monitoring service image
Local
Radar
Active
Alerts
Storm Reports Obs
Monitoring

Sign-up For Email & Text Message Weather Alert Notification Services



Advertise Here

Observation History for Memphis International Airport, TN


Time Wind
(mph)
Vis
(mi)
Weather Precip (in) Temperature (F) Relative
Humidity
Wind
Chill
(F)
Heat
Index
(F)
Pressure
Air Dwpt altimeter
(in)
sea level
(mb)
Rmks
9:54 pm CDT E 8.1 10.00 Mostly Cloudy -- 77.0 69.1 77% NA NA 29.99 1015.1
8:54 pm CDT E 8.1 10.00 Mostly Cloudy -- 78.0 69.1 74% NA NA 29.98 1014.7
7:54 pm CDT E 9.2 10.00 Mostly Cloudy -- 78.0 68.0 71% NA NA 29.96 1014.2
6:54 pm CDT E 10.4 10.00 A Few Clouds -- 80.0 68.0 67% NA 83 29.95 1013.8
5:54 pm CDT E 9.2 10.00 Mostly Cloudy -- 81.0 66.9 62% NA 83 29.95 1013.7
4:54 pm CDT E 15.0 10.00 Overcast -- 82.0 66.0 58% NA 84 29.94 1013.5
3:54 pm CDT E 11.5 10.00 Mostly Cloudy -- 83.0 66.0 57% NA 85 29.94 1013.5
2:54 pm CDT E 17.3 10.00 Mostly Cloudy -- 84.0 66.9 57% NA 87 29.95 1013.8
1:54 pm CDT NE 13.8 10.00 Mostly Cloudy -- 84.0 66.9 57% NA 87 29.97 1014.4
12:54 pm CDT E 13.8 10.00 Mostly Cloudy -- 85.0 66.9 55% NA 88 29.99 1015.1
11:54 am CDT E 13.8 10.00 Mostly Cloudy -- 82.0 66.9 60% NA 84 30.00 1015.4
10:54 am CDT E 9.2 10.00 Mostly Cloudy -- 79.0 66.9 67% NA NA 30.01 1015.6
9:54 am CDT E 8.1 10.00 Mostly Cloudy -- 76.0 66.9 74% NA NA 30.00 1015.6
8:54 am CDT E 10.4 8.00 Overcast -- 72.0 66.9 84% NA NA 30.00 1015.4
7:54 am CDT E 9.2 7.00 Overcast -- 71.0 66.9 87% NA NA 29.99 1015.1
6:54 am CDT E 8.1 8.00 Overcast -- 70.0 68.0 93% NA NA 29.97 1014.4
5:54 am CDT E 5.8 10.00 A Few Clouds -- 70.0 68.0 93% NA NA 29.96 1013.9
4:54 am CDT E 5.8 10.00 A Few Clouds -- 72.0 69.1 91% NA NA 29.95 1013.7
3:54 am CDT E 4.6 10.00 A Few Clouds -- 72.0 69.1 91% NA NA 29.94 1013.3
2:54 am CDT E 5.8 10.00 Fair -- 72.0 69.1 91% NA NA 29.94 1013.4
1:54 am CDT E 3.5 10.00 Fair -- 73.0 69.1 87% NA NA 29.95 1013.6
12:54 am CDT E 6.9 10.00 A Few Clouds -- 74.0 69.1 85% NA NA 29.95 1013.8
11:54 pm CDT E 8.1 10.00 A Few Clouds -- 75.0 69.1 82% NA NA 29.96 1014.0
10:54 pm CDT E 9.2 10.00 A Few Clouds -- 76.0 69.1 79% NA NA 29.97 1014.3

Regional Weather Observation


Memphis International Airport, TN (KMEM)

Mostly Cloudy
77.0 F

Millington, Millington Municipal Airport, TN (KNQA)

Fair
73.0 F

Jonesboro, Jonesboro Municipal Airport, AR (KJBR)

Fair
72.0 F

COVINGTON MUNI, TN (KM04)

Fair
72.0 F

Somerville - Fayette County Airport, TN (KFYE)

NULL
72.0 F

Olive Branch, Olive Branch Airport, MS (KOLV)

A Few Clouds
77.0 F
Advertise Here


Advertise Here